FW7705 Weather Reports


Display with metric or nautical units.
time (UTC)temp
F
wind
direction
speed
MPH
gust
MPH
rain 1hr
in
rain 24hr
in
rain mn
in
humidity
%
barometer
mb
20260905214031 69 6 3.0 3.0 0.00 0.00 0.00 72 1013.3
20260905213526 69 2 3.0 3.0 0.00 0.00 0.00 71 1013.0
20260905213022 70 359 3.0 4.0 0.00 0.00 0.00 72 1013.1
20260905212516 70 354 3.0 4.0 0.00 0.00 0.00 71 1013.2
20260905212017 70 16 2.0 2.0 0.00 0.00 0.00 72 1013.1
20260905211511 70 341 1.0 1.0 0.00 0.00 0.00 72 1013.2
20260905211007 70 331 4.0 6.0 0.00 0.00 0.00 74 1013.1
20260905210503 70 21 6.0 6.0 0.00 0.00 0.00 71 1013.1
20260905210002 70 339 3.0 4.0 0.00 0.00 0.00 71 1013.1
20260905205457 71 18 4.0 7.0 0.00 0.00 0.00 69 1013.1
20260905204955 71 358 2.0 4.0 0.00 0.00 0.00 73 1013.2
20260905204451 70 40 3.0 4.0 0.00 0.00 0.00 74 1013.1
20260905203950 70 31 4.0 4.0 0.00 0.00 0.00 71 1013.0
20260905203446 70 2 2.0 3.0 0.00 0.00 0.00 73 1013.1
20260905202941 70 39 2.0 2.0 0.00 0.00 0.00 71 1013.2
20260905202436 70 23 5.0 7.0 0.00 0.00 0.00 73 1013.3
20260905201932 71 4 4.0 4.0 0.00 0.00 0.00 70 1013.2
20260905201427 71 6 4.0 4.0 0.00 0.00 0.00 68 1013.3
20260905200927 70 347 4.0 4.0 0.00 0.00 0.00 71 1013.1
20260905200423 71 325 2.0 2.0 0.00 0.00 0.00 72 1013.2
20260905195921 71 39 2.0 2.0 0.00 0.00 0.00 70 1013.3
20260905195416 71 350 2.0 3.0 0.00 0.00 0.00 67 1013.0
20260905194912 73 303 3.0 4.0 0.00 0.00 0.00 65 1012.9
20260905194411 73 10 4.0 7.0 0.00 0.00 0.00 66 1013.0
20260905193911 72 14 6.0 7.0 0.00 0.00 0.00 68 1013.1
20260905193412 70 323 4.0 4.0 0.00 0.00 0.00 72 1013.2
20260905192907 70 328 2.0 3.0 0.00 0.00 0.00 72 1013.2
20260905192402 71 316 4.0 4.0 0.00 0.00 0.00 67 1013.1
20260905191857 72 341 6.0 8.0 0.00 0.00 0.00 63 1013.1
20260905191356 73 349 4.0 6.0 0.00 0.00 0.00 63 1013.1
20260905190856 73 356 4.0 4.0 0.00 0.00 0.00 65 1012.9
20260905190354 73 40 4.0 4.0 0.00 0.00 0.00 62 1013.1
20260905185853 71 305 4.0 4.0 0.00 0.00 0.00 70 1013.1
20260905185348 71 344 4.0 4.0 0.00 0.00 0.00 66 1013.1
20260905184847 71 349 3.0 4.0 0.00 0.00 0.00 66 1013.1
20260905184347 72 303 4.0 4.0 0.00 0.00 0.00 63 1013.0
20260905183845 73 271 3.0 3.0 0.00 0.00 0.00 66 1012.9
20260905183341 73 318 4.0 6.0 0.00 0.00 0.00 64 1012.9
20260905182841 70 218 1.0 1.0 0.00 0.00 0.00 66 1013.0
20260905182341 69 10 2.0 3.0 0.00 0.00 0.00 69 1013.3
20260905181837 70 297 2.0 2.0 0.00 0.00 0.00 69 1013.3
20260905181336 70 61 0.0 1.0 0.00 0.00 0.00 67 1013.2
20260905180835 71 324 3.0 4.0 0.00 0.00 0.00 64 1012.9
20260905180331 71 335 3.0 7.0 0.00 0.00 0.00 63 1013.0
20260905175825 70 15 2.0 2.0 0.00 0.00 0.00 68 1013.1
20260905175320 70 20 1.0 2.0 0.00 0.00 0.00 69 1013.1
20260905174815 70 24 2.0 3.0 0.00 0.00 0.00 72 1013.1
20260905174311 70 30 2.0 2.0 0.00 0.00 0.00 69 1013.2
20260905173806 70 281 3.0 4.0 0.00 0.00 0.00 71 1013.0
20260905173302 70 4 2.0 2.0 0.00 0.00 0.00 70 1013.3
20260905172802 69 25 2.0 2.0 0.00 0.00 0.00 71 1013.2
20260905172300 70 348 4.0 4.0 0.00 0.00 0.00 68 1013.4
20260905171757 70 32 2.0 3.0 0.00 0.00 0.00 68 1013.2
20260905171253 70 43 3.0 3.0 0.00 0.00 0.00 67 1013.4
20260905170749 69 17 5.0 6.0 0.00 0.00 0.00 69 1013.5
20260905170245 69 349 7.0 9.0 0.00 0.00 0.00 67 1013.6
20260905165744 69 9 4.0 4.0 0.00 0.00 0.00 70 1013.5
20260905165240 70 20 5.0 8.0 0.00 0.00 0.00 67 1013.5
20260905164739 71 339 6.0 7.0 0.00 0.00 0.00 64 1013.5
20260905164234 73 47 2.0 2.0 0.00 0.00 0.00 63 1013.4
20260905163730 71 39 2.0 2.0 0.00 0.00 0.00 67 1013.5
20260905163226 70 2 6.0 9.0 0.00 0.00 0.00 69 1013.5
20260905162722 71 44 4.0 4.0 0.00 0.00 0.00 67 1013.2
20260905162221 72 35 4.0 6.0 0.00 0.00 0.00 66 1013.3
20260905161716 70 22 3.0 6.0 0.00 0.00 0.00 74 1013.4
20260905161215 69 18 3.0 4.0 0.00 0.00 0.00 69 1013.6
20260905160713 70 13 3.0 4.0 0.00 0.00 0.00 68 1013.5
20260905160208 69 261 3.0 3.0 0.00 0.00 0.00 74 1013.4
20260905155708 68 352 5.0 6.0 0.00 0.00 0.00 72 1013.8
20260905155207 68 319 3.0 4.0 0.00 0.00 0.00 74 1013.6
20260905154701 69 322 6.0 8.0 0.00 0.00 0.00 70 1013.6
20260905154157 69 16 5.0 6.0 0.00 0.00 0.00 71 1013.6
20260905153653 71 26 3.0 3.0 0.00 0.00 0.00 70 1013.8
20260905153148 71 351 3.0 4.0 0.00 0.00 0.00 68 1013.4
20260905152643 71 346 7.0 10.0 0.00 0.00 0.00 67 1013.6
20260905152138 69 318 5.0 6.0 0.00 0.00 0.00 73 1013.5
20260905151632 68 316 3.0 3.0 0.00 0.00 0.00 73 1013.6
20260905151128 68 348 5.0 6.0 0.00 0.00 0.00 71 1013.6
20260905150623 69 310 4.0 4.0 0.00 0.00 0.00 72 1013.8
20260905150121 68 286 4.0 6.0 0.00 0.00 0.00 77 1013.7
20260905145620 67 348 2.0 3.0 0.00 0.00 0.00 78 1013.8
20260905145119 67 6 4.0 4.0 0.00 0.00 0.00 77 1013.6
20260905144614 67 317 2.0 4.0 0.00 0.00 0.00 78 1013.6
20260905144113 67 274 3.0 6.0 0.00 0.00 0.00 78 1013.7
20260905143608 67 16 3.0 4.0 0.00 0.00 0.00 78 1013.5
20260905143103 67 53 1.0 2.0 0.00 0.00 0.00 78 1013.7
20260905142602 67 330 5.0 6.0 0.00 0.00 0.00 77 1013.7
20260905142101 68 15 3.0 3.0 0.00 0.00 0.00 78 1013.6
20260905141601 68 45 6.0 8.0 0.00 0.00 0.00 77 1013.7
20260905141058 67 7 5.0 7.0 0.00 0.00 0.00 83 1013.7
20260905140553 66 331 4.0 4.0 0.00 0.00 0.00 81 1013.8
20260905140052 67 64 7.0 8.0 0.00 0.00 0.00 79 1013.7
20260905135547 66 18 5.0 7.0 0.00 0.00 0.00 80 1013.7
20260905135047 66 22 4.0 4.0 0.00 0.00 0.00 81 1013.6
20260905134542 66 333 4.0 7.0 0.00 0.00 0.00 82 1013.5
20260905134041 66 46 3.0 3.0 0.00 0.00 0.00 83 1013.5
20260905133536 66 35 2.0 3.0 0.00 0.00 0.00 86 1013.5
20260905133036 66 35 3.0 3.0 0.00 0.00 0.00 85 1013.6
20260905132536 66 20 2.0 3.0 0.00 0.00 0.00 83 1013.5
20260905132031 65 31 2.0 3.0 0.00 0.00 0.00 83 1013.6
20260905131526 65 307 5.0 8.0 0.00 0.00 0.00 84 1013.5
20260905131022 65 308 2.0 2.0 0.00 0.00 0.00 85 1013.4
20260905130520 65 240 5.0 6.0 0.00 0.00 0.00 85 1013.6
20260905130016 64 346 2.0 2.0 0.00 0.00 0.00 86 1013.6
20260905125515 64 42 2.0 2.0 0.00 0.00 0.00 85 1013.7
20260905125011 64 72 1.0 2.0 0.00 0.00 0.00 87 1013.8
20260905124508 63 318 2.0 3.0 0.00 0.00 0.00 87 1013.9
20260905124003 63 312 3.0 3.0 0.00 0.00 0.00 88 1014.1
20260905123459 63 3 1.0 2.0 0.00 0.00 0.00 88 1014.0
20260905122955 62 22 2.0 3.0 0.00 0.00 0.00 90 1014.1
20260905122454 62 248 1.0 1.0 0.00 0.00 0.00 93 1013.9
20260905121949 61 62 1.0 1.0 0.00 0.00 0.00 93 1013.9
20260905121445 61 20 2.0 2.0 0.00 0.00 0.00 96 1014.0
20260905120944 60 322 1.0 1.0 0.00 0.00 0.00 98 1013.9
20260905120439 60 20 1.0 1.0 0.00 0.00 0.00 99 1013.7
20260905115934 59 337 3.0 3.0 0.00 0.00 0.00 99 1013.5
20260905115433 59 347 2.0 2.0 0.00 0.00 0.00 99 1013.5
20260905114928 58 348 2.0 2.0 0.00 0.00 0.00 99 1013.4
20260905114428 58 348 2.0 2.0 0.00 0.00 0.00 99 1013.3
20260905113927 58 348 1.0 1.0 0.00 0.00 0.00 99 1013.5
20260905113422 58 348 2.0 2.0 0.00 0.00 0.00 99 1013.3
20260905112918 57 348 1.0 1.0 0.00 0.00 0.00 99 1013.5
20260905112413 57 348 0.0 0.0 0.00 0.00 0.00 99 1013.4
20260905111909 57 348 0.0 0.0 0.00 0.00 0.00 99 1013.3
20260905111408 57 348 0.0 0.0 0.00 0.00 0.00 99 1013.4
20260905110908 57 348 0.0 0.0 0.00 0.00 0.00 99 1013.0
20260905110402 57 348 0.0 0.0 0.00 0.00 0.00 99 1013.2
20260905105857 57 348 0.0 0.0 0.00 0.00 0.00 99 1013.4
20260905105356 57 348 0.0 0.0 0.00 0.00 0.00 99 1013.3
20260905104850 57 348 0.0 0.0 0.00 0.00 0.00 99 1013.0
20260905104347 57 348 0.0 0.0 0.00 0.00 0.00 99 1012.8
20260905103846 57 348 0.0 0.0 0.00 0.00 0.00 99 1012.9
20260905103342 57 348 0.0 0.0 0.00 0.00 0.00 99 1012.9
20260905102838 57 348 0.0 0.0 0.00 0.00 0.00 99 1012.7
20260905102335 57 348 0.0 0.0 0.00 0.00 0.00 99 1012.7
20260905101834 57 348 0.0 0.0 0.00 0.00 0.00 99 1012.7
20260905101332 57 348 0.0 0.0 0.00 0.00 0.00 99 1012.6
20260905100827 57 348 0.0 0.0 0.00 0.00 0.00 99 1012.7
20260905100324 57 348 0.0 1.0 0.00 0.00 0.00 99 1012.5
20260905095823 57 348 0.0 0.0 0.00 0.00 0.00 99 1012.6
20260905095322 57 348 0.0 0.0 0.00 0.00 0.00 99 1012.6
20260905094817 58 348 0.0 0.0 0.00 0.00 0.00 99 1012.2
20260905094313 57 348 0.0 1.0 0.00 0.00 0.00 99 1012.3
20260905093812 57 349 0.0 0.0 0.00 0.00 0.00 99 1012.3
20260905093308 57 349 0.0 0.0 0.00 0.00 0.00 99 1012.5
20260905092803 58 349 0.0 0.0 0.00 0.00 0.00 99 1012.3
20260905092258 58 349 0.0 0.0 0.00 0.00 0.00 99 1012.4
20260905091753 58 349 0.0 1.0 0.00 0.00 0.00 99 1012.5
20260905091253 58 349 0.0 0.0 0.00 0.00 0.00 99 1012.2
20260905090752 57 349 1.0 1.0 0.00 0.00 0.00 99 1012.4
20260905090248 57 349 0.0 1.0 0.00 0.00 0.00 99 1012.6
20260905085747 57 349 0.0 0.0 0.00 0.00 0.00 99 1012.6
20260905085247 58 349 0.0 0.0 0.00 0.00 0.00 99 1012.6
20260905084742 58 349 0.0 0.0 0.00 0.00 0.00 99 1012.4
20260905084241 58 349 0.0 0.0 0.00 0.00 0.00 99 1012.7
20260905083736 58 349 0.0 0.0 0.00 0.00 0.00 98 1012.5
20260905083232 58 349 0.0 0.0 0.00 0.00 0.00 98 1012.6
20260905082727 58 349 0.0 0.0 0.00 0.00 0.00 98 1012.4
20260905082223 58 349 0.0 0.0 0.00 0.00 0.00 98 1012.5
20260905081718 58 349 0.0 0.0 0.00 0.00 0.00 98 1012.4
20260905081213 58 349 0.0 0.0 0.00 0.00 0.00 98 1012.5
20260905080713 59 349 0.0 0.0 0.00 0.00 0.00 97 1012.5
20260905080213 59 349 0.0 1.0 0.00 0.00 0.00 97 1012.7
20260905075712 59 349 1.0 1.0 0.00 0.00 0.00 97 1012.7
20260905075211 59 349 0.0 0.0 0.00 0.00 0.00 97 1012.7
20260905074710 59 349 0.0 0.0 0.00 0.00 0.00 97 1012.7
20260905074206 59 349 0.0 0.0 0.00 0.00 0.00 96 1012.8
20260905073702 60 349 0.0 0.0 0.00 0.00 0.00 96 1012.6
20260905073157 60 349 1.0 2.0 0.00 0.00 0.00 96 1012.7
20260905072656 60 348 0.0 0.0 0.00 0.00 0.00 96 1013.0
20260905072152 60 349 1.0 1.0 0.00 0.00 0.00 95 1012.8
20260905071648 60 348 2.0 2.0 0.00 0.00 0.00 96 1012.9
20260905071143 60 356 1.0 2.0 0.00 0.00 0.00 95 1012.9
20260905070638 60 356 2.0 2.0 0.00 0.00 0.00 96 1012.9
20260905070134 60 356 2.0 3.0 0.00 0.00 0.00 95 1013.0
20260905065632 60 359 0.0 0.0 0.00 0.00 0.00 95 1013.0
20260905065127 60 17 0.0 1.0 0.00 0.00 0.00 95 1013.0
20260905064623 60 17 0.0 1.0 0.00 0.00 0.00 95 1013.2
20260905064118 60 17 1.0 1.0 0.00 0.00 0.00 95 1013.1
20260905063616 60 17 1.0 1.0 0.00 0.00 0.00 95 1012.9
20260905063113 60 17 1.0 1.0 0.00 0.00 0.00 94 1013.1
20260905062609 61 17 2.0 2.0 0.00 0.00 0.00 94 1013.2
20260905062108 61 16 1.0 2.0 0.00 0.00 0.00 94 1013.4
20260905061603 61 18 1.0 1.0 0.00 0.00 0.00 93 1013.3
20260905061102 61 17 1.0 2.0 0.00 0.00 0.00 93 1013.3
20260905060558 61 17 3.0 3.0 0.00 0.00 0.00 92 1013.2
20260905060054 61 13 1.0 1.0 0.00 0.00 0.00 91 1013.1
20260905055553 61 37 2.0 2.0 0.00 0.00 0.00 91 1013.4
20260905055048 61 350 2.0 2.0 0.00 0.00 0.00 90 1013.1
20260905054543 62 25 1.0 1.0 0.00 0.00 0.00 89 1013.4
20260905054039 62 30 1.0 1.0 0.00 0.00 0.00 89 1013.4
20260905053538 62 46 0.0 0.0 0.00 0.00 0.00 88 1013.3
20260905053034 62 46 1.0 2.0 0.00 0.00 0.00 88 1013.3
20260905052533 62 47 1.0 1.0 0.00 0.00 0.00 89 1013.4
20260905052028 61 47 0.0 1.0 0.00 0.00 0.00 89 1013.7
20260905051523 62 47 0.0 1.0 0.00 0.00 0.00 88 1013.7
20260905051020 62 47 0.0 1.0 0.00 0.00 0.00 87 1013.4
20260905050516 62 47 0.0 1.0 0.00 0.00 0.00 87 1013.6
20260905050013 61 50 1.0 1.0 0.00 0.00 0.00 89 1013.7
20260905045507 61 50 1.0 1.0 0.00 0.00 0.00 90 1013.7
20260905045003 60 50 1.0 1.0 0.00 0.00 0.00 89 1013.6
20260905044503 60 50 0.0 1.0 0.00 0.00 0.00 89 1013.5
20260905043957 60 50 0.0 1.0 0.00 0.00 0.00 89 1013.5
20260905043456 61 50 0.0 1.0 0.00 0.00 0.00 88 1013.7
20260905042951 61 50 0.0 1.0 0.00 0.00 0.00 88 1013.7
20260905042450 61 50 0.0 1.0 0.00 0.00 0.00 88 1013.6
20260905041945 61 50 0.0 0.0 0.00 0.00 0.00 89 1013.9
20260905041441 61 50 0.0 0.0 0.00 0.00 0.00 89 1013.9
20260905040936 61 50 0.0 0.0 0.00 0.00 0.00 89 1013.9
20260905040436 61 50 0.0 0.0 0.00 0.00 0.00 89 1013.6
20260905035935 61 50 0.0 0.0 0.00 0.33 0.33 90 1013.8
20260905035430 61 50 0.0 0.0 0.00 0.33 0.33 89 1013.9
20260905034927 61 50 0.0 0.0 0.00 0.33 0.33 89 1013.5
20260905034422 61 50 0.0 0.0 0.00 0.33 0.33 89 1013.6
20260905033921 61 50 0.0 0.0 0.00 0.33 0.33 89 1013.6
20260905033416 61 50 0.0 0.0 0.00 0.33 0.33 89 1013.8
20260905032916 61 50 0.0 0.0 0.00 0.33 0.33 90 1013.7
20260905032412 61 50 0.0 0.0 0.00 0.33 0.33 91 1013.7
20260905031907 61 50 0.0 0.0 0.00 0.33 0.33 92 1013.6
20260905031403 61 50 0.0 0.0 0.00 0.33 0.33 93 1013.7
20260905030857 61 50 0.0 0.0 0.00 0.33 0.33 91 1013.6
20260905030353 61 50 0.0 0.0 0.00 0.33 0.33 92 1013.7
20260905025852 61 50 0.0 0.0 0.00 0.33 0.33 92 1013.6
20260905025347 61 50 0.0 0.0 0.00 0.33 0.33 92 1013.4
20260905024844 61 50 0.0 0.0 0.00 0.33 0.33 93 1013.6
20260905024339 61 50 0.0 0.0 0.00 0.33 0.33 94 1013.6
20260905023834 61 50 0.0 0.0 0.00 0.33 0.33 93 1013.6
20260905023330 61 50 0.0 0.0 0.00 0.33 0.33 92 1013.6
20260905022828 62 50 0.0 0.0 0.00 0.33 0.33 91 1013.4
20260905022324 62 50 0.0 0.0 0.00 0.33 0.33 90 1013.5
20260905021819 63 50 0.0 0.0 0.00 0.33 0.33 90 1013.4
20260905021314 63 50 0.0 0.0 0.00 0.33 0.33 87 1013.6
20260905020813 64 50 0.0 0.0 0.00 0.33 0.33 88 1013.6
20260905020309 64 50 0.0 0.0 0.00 0.33 0.33 87 1013.7
20260905015807 64 50 0.0 0.0 0.00 0.33 0.33 87 1013.7
20260905015306 64 50 0.0 1.0 0.00 0.33 0.33 87 1014.0
20260905014801 64 50 0.0 1.0 0.00 0.33 0.33 88 1013.8
20260905014257 64 50 0.0 0.0 0.00 0.33 0.33 89 1014.0
20260905013752 65 50 0.0 0.0 0.00 0.33 0.33 89 1014.0
20260905013248 65 50 0.0 0.0 0.00 0.33 0.33 89 1014.1
20260905012743 65 50 0.0 0.0 0.00 0.33 0.33 88 1014.3
20260905012239 65 50 0.0 0.0 0.00 0.33 0.33 88 1013.9
20260905011736 65 50 0.0 0.0 0.00 0.33 0.33 88 1014.0
20260905011231 64 50 0.0 0.0 0.00 0.33 0.33 88 1013.7
20260905010731 65 50 0.0 0.0 0.00 0.33 0.33 89 1013.6
20260905010226 65 50 0.0 0.0 0.00 0.33 0.33 88 1013.6
20260905005723 65 50 0.0 0.0 0.00 0.33 0.33 87 1013.8
20260905005219 65 50 0.0 0.0 0.00 0.33 0.33 85 1013.8
20260905004712 65 50 0.0 0.0 0.00 0.33 0.33 85 1013.8
20260905004208 66 50 0.0 0.0 0.00 0.33 0.33 85 1013.7
20260905003703 66 50 0.0 0.0 0.00 0.33 0.33 85 1013.8
20260905003159 66 50 0.0 0.0 0.00 0.33 0.33 83 1013.6
20260905002654 66 50 0.0 0.0 0.00 0.33 0.33 83 1013.8
20260905002154 66 50 0.0 1.0 0.00 0.33 0.33 83 1013.8
20260905001649 66 50 0.0 0.0 0.00 0.33 0.33 83 1013.7
20260905001148 66 50 0.0 0.0 0.00 0.33 0.33 82 1013.5
20260905000644 66 50 1.0 1.0 0.00 0.33 0.33 81 1013.4
20260905000140 66 51 1.0 2.0 0.00 0.33 0.33 82 1013.6
20260904235639 67 55 0.0 0.0 0.00 0.33 0.33 82 1013.2
20260904235138 67 55 0.0 0.0 0.00 0.33 0.33 82 1013.3
20260904234634 67 58 0.0 0.0 0.00 0.33 0.33 82 1013.4
20260904234130 67 59 1.0 1.0 0.00 0.33 0.33 82 1013.4
20260904233625 68 59 1.0 1.0 0.00 0.33 0.33 82 1013.4
20260904233121 68 72 1.0 2.0 0.00 0.33 0.33 79 1013.3
20260904232617 68 24 0.0 1.0 0.00 0.33 0.33 79 1013.3
20260904232113 68 24 1.0 1.0 0.00 0.33 0.33 78 1013.3
20260904231609 68 24 0.0 0.0 0.00 0.33 0.33 79 1013.5
20260904231109 69 24 0.0 0.0 0.00 0.33 0.33 78 1013.5
20260904230608 69 24 0.0 0.0 0.00 0.33 0.33 76 1013.3
20260904230104 69 22 2.0 3.0 0.00 0.33 0.33 76 1013.5
20260904225601 69 24 2.0 2.0 0.00 0.33 0.33 75 1013.3
20260904225056 70 28 1.0 1.0 0.00 0.33 0.33 74 1013.2
20260904224551 71 31 1.0 1.0 0.00 0.33 0.33 72 1013.1
20260904224046 71 38 2.0 3.0 0.00 0.33 0.33 71 1013.2
20260904223545 72 73 2.0 2.0 0.00 0.33 0.33 70 1013.2
20260904223041 73 18 1.0 1.0 0.00 0.33 0.33 68 1013.2
20260904222536 73 22 3.0 4.0 0.00 0.33 0.33 69 1013.3
20260904222031 73 309 2.0 2.0 0.00 0.33 0.33 70 1013.1
20260904221526 73 53 2.0 2.0 0.00 0.33 0.33 69 1013.3
20260904221021 73 39 2.0 2.0 0.00 0.33 0.33 71 1013.0
20260904220521 73 50 2.0 2.0 0.00 0.33 0.33 70 1013.1
20260904220016 73 40 1.0 2.0 0.00 0.33 0.33 70 1013.1
20260904215511 72 340 1.0 2.0 0.00 0.33 0.33 70 1013.1
20260904215006 73 331 2.0 2.0 0.00 0.33 0.33 70 1013.1
20260904214501 73 296 4.0 4.0 0.00 0.33 0.33 67 1013.1